Epoch 1997 Nov. 8.0 TT = JDT 2450760.5 T 1997 Nov. 9.27293 TT MPCW q 2.9400116 (2000.0) P Q n 0.10846039 Peri. 357.82250 +0.29997282 +0.93307495 a 4.3546702 Node 289.58523 -0.87201544 +0.18385551 e 0.3248601 Incl. 12.16045 -0.38678854 +0.30914121 P 9.09 From 47 observations 1998 Oct. 18-2016 Aug. 30, mean residual 0".5.
m1 = 12.5 + 5 log d + 10.0 log r